Crane Lake, MN

1:02 AM CST on November 22, 2017 (GMT -0600)
Crane Lake

Weather History for KCDD - December, 2013

Change the Weather History Date:

Tuesday, December 10, 2013

  Actual Average Record
Temperature  
Mean Temperature -16 °F -  
Max Temperature 1 °F 25 °F 41 °F (2002)
Min Temperature -32 °F 10 °F -32 °F (2013)
Degree Days  
Heating Degree Days 80    
Moisture  
Dew Point -22 °F    
Average Humidity 75    
Maximum Humidity 84    
Minimum Humidity 66    
Precipitation  
Precipitation 0.00 in - - ()
Sea Level Pressure  
Sea Level Pressure 29.91 in    
Wind  
Wind Speed 1 mph (West)    
Max Wind Speed 8 mph    
Max Gust Speed -    
Visibility 9 miles    
Events Snow    
Averages and records for this station are not official NWS values.
T = Trace of Precipitation, MM = Missing Value Source: NWS Daily Summary

Daily Weather History Graph

Daily Weather History Graph

Search for Another Location

Airport or City:

Trip Planner

Search our weather history database for the weather conditions in past years. The results will help you decide how hot, cold, wet, or windy it might be!

Date:

Astronomy

Dec. 10, 2013 Rise Set
Actual Time 7:50 AM CST 4:15 PM CST
Civil Twilight 7:13 AM CST 4:51 PM CST
Nautical Twilight 6:33 AM CST 5:31 PM CST
Astronomical Twilight 5:56 AM CST 6:09 PM CST
Moon 12:41 PM CST (12/10) 12:41 AM CST (12/10)
Length of Visible Light 9h 38m
Length of Day
8h 25m
Waxing Gibbous, 62% of the Moon is Illuminated
Dec 10
Waxing Gibbous
Dec 17
Full
Dec 25
Last Quarter
Jan 1
New
Jan 7
First Quarter

Hourly Weather History & Observations

Time (CST) Temp. Windchill Dew Point Humidity Pressure Visibility Wind Dir Wind Speed Gust Speed Precip Events Conditions
12:07 AM -18.4 °F - -23.8 °F 76% 29.84 in 10.0 mi Calm Calm - N/A   Mostly Cloudy
12:27 AM -18.4 °F - -23.8 °F 76% 29.83 in 10.0 mi Calm Calm - N/A   Mostly Cloudy
12:47 AM -18.4 °F - -23.8 °F 76% 29.82 in 10.0 mi Calm Calm - N/A   Overcast
1:07 AM -18.4 °F - -23.8 °F 76% 29.81 in 10.0 mi Calm Calm - N/A   Mostly Cloudy
1:27 AM -18.4 °F - -23.8 °F 76% 29.80 in 10.0 mi Calm Calm - N/A   Mostly Cloudy
1:47 AM -18.4 °F - -23.8 °F 76% 29.81 in 10.0 mi Calm Calm - N/A   Overcast
2:07 AM -18.4 °F - -25.6 °F 70% 29.81 in 10.0 mi Calm Calm - N/A   Mostly Cloudy
2:27 AM -20.2 °F - -25.6 °F 76% 29.81 in 10.0 mi Calm Calm - N/A   Scattered Clouds
2:48 AM -22.0 °F - -27.4 °F 76% 29.81 in 10.0 mi Calm Calm - N/A   Clear
3:08 AM -23.8 °F - -29.2 °F 76% 29.80 in 10.0 mi Calm Calm - N/A   Clear
3:27 AM -25.6 °F - -31.0 °F 76% 29.80 in 10.0 mi Calm Calm - N/A   Clear
3:47 AM -25.6 °F - -32.8 °F 69% 29.80 in 10.0 mi Calm Calm - N/A   Clear
4:07 AM -25.6 °F - -32.8 °F 69% 29.80 in 10.0 mi Calm Calm - N/A   Clear
4:28 AM -27.4 °F - -34.6 °F 69% 29.80 in 10.0 mi Calm Calm - N/A   Clear
4:47 AM -27.4 °F - -34.6 °F 69% 29.80 in 10.0 mi Calm Calm - N/A   Clear
5:07 AM -27.4 °F - -34.6 °F 69% 29.80 in 10.0 mi Calm Calm - N/A   Clear
5:27 AM -29.2 °F - -34.6 °F 75% 29.81 in 10.0 mi Calm Calm - N/A   Clear
5:47 AM -29.2 °F - -36.4 °F 68% 29.80 in 10.0 mi Calm Calm - N/A   Clear
6:07 AM -31.0 °F - -36.4 °F 75% 29.81 in 7.0 mi Calm Calm - N/A   Clear
6:27 AM -31.0 °F - -36.4 °F 75% 29.80 in 7.0 mi Calm Calm - N/A   Clear
6:48 AM -31.0 °F - -36.4 °F 75% 29.81 in 5.0 mi Calm Calm - N/A Snow Light Snow
7:07 AM -32.8 °F - -36.4 °F 83% 29.80 in 10.0 mi Calm Calm - N/A   Clear
7:27 AM -32.8 °F - -36.4 °F 83% 29.81 in 10.0 mi Calm Calm - N/A   Clear
7:48 AM -32.8 °F - -38.2 °F 75% 29.82 in 10.0 mi Calm Calm - N/A   Clear
8:07 AM -32.8 °F - -38.2 °F 75% 29.82 in 10.0 mi Calm Calm - N/A   Clear
8:27 AM -31.0 °F - -36.4 °F 75% 29.82 in 10.0 mi Calm Calm - N/A   Clear
8:47 AM -29.2 °F - -36.4 °F 68% 29.82 in 10.0 mi Calm Calm - N/A   Clear
9:07 AM -27.4 °F - -32.8 °F 75% 29.84 in 10.0 mi Calm Calm - N/A   Clear
9:27 AM -23.8 °F - -29.2 °F 76% 29.84 in 10.0 mi Calm Calm - N/A   Clear
9:47 AM -14.8 °F - -18.4 °F 84% 29.84 in 7.0 mi Calm Calm - N/A Snow Light Snow
10:07 AM -9.4 °F - -14.8 °F 77% 29.84 in 10.0 mi Calm Calm - N/A   Clear
10:28 AM -9.4 °F - -14.8 °F 77% 29.85 in 4.0 mi Calm Calm - N/A Snow Light Snow
10:47 AM -7.6 °F -18.8 °F -11.2 °F 84% 29.86 in 1.8 mi SW 4.6 mph - N/A Snow Light Snow
11:07 AM -7.6 °F - -11.2 °F 84% 29.86 in 4.0 mi Calm Calm - N/A Snow Light Snow
11:27 AM -5.8 °F -21.2 °F -9.4 °F 84% 29.85 in 2.0 mi West 8.1 mph - N/A Snow Light Snow
11:47 AM -5.8 °F -18.4 °F -9.4 °F 84% 29.85 in 3.0 mi West 5.8 mph - N/A Snow Light Snow
12:07 PM -4.0 °F - -9.4 °F 78% 29.86 in 4.0 mi Calm Calm - N/A   Haze
12:27 PM -0.4 °F -14.7 °F -5.8 °F 78% 29.87 in 7.0 mi WSW 8.1 mph - N/A   Scattered Clouds
12:47 PM -0.4 °F -12.0 °F -7.6 °F 72% 29.88 in 10.0 mi West 5.8 mph - N/A   Clear
1:08 PM -0.4 °F -10.4 °F -7.6 °F 72% 29.88 in 10.0 mi NW 4.6 mph - N/A   Clear
1:27 PM 1.4 °F -9.9 °F -7.6 °F 66% 29.88 in 10.0 mi West 5.8 mph - N/A   Clear
1:47 PM -0.4 °F -10.4 °F -7.6 °F 72% 29.89 in 10.0 mi WSW 4.6 mph - N/A   Clear
2:07 PM -0.4 °F -8.3 °F -7.6 °F 72% 29.89 in 10.0 mi WNW 3.5 mph - N/A   Clear
2:28 PM -0.4 °F -8.3 °F -9.4 °F 66% 29.90 in 10.0 mi West 3.5 mph - N/A   Clear
2:47 PM -0.4 °F -14.7 °F -9.4 °F 66% 29.91 in 10.0 mi WSW 8.1 mph - N/A   Clear
3:07 PM -0.4 °F -12.0 °F -9.4 °F 66% 29.93 in 10.0 mi West 5.8 mph - N/A   Clear
3:28 PM -2.2 °F -10.4 °F -11.2 °F 66% 29.94 in 10.0 mi SW 3.5 mph - N/A   Clear
3:48 PM -5.8 °F -14.5 °F -13.0 °F 71% 29.95 in 10.0 mi SW 3.5 mph - N/A   Clear
4:07 PM -7.6 °F - -14.8 °F 71% 29.95 in 10.0 mi Calm Calm - N/A   Clear
4:27 PM -7.6 °F - -14.8 °F 71% 29.97 in 10.0 mi Calm Calm - N/A   Clear
4:47 PM -11.2 °F - -18.4 °F 70% 29.98 in 10.0 mi Calm Calm - N/A   Clear
5:07 PM -14.8 °F - -20.2 °F 77% 29.98 in 7.0 mi Calm Calm - N/A   Mostly Cloudy
5:27 PM -16.6 °F - -23.8 °F 70% 29.99 in 7.0 mi Calm Calm - N/A   Scattered Clouds
5:48 PM -16.6 °F - -23.8 °F 70% 30.00 in 10.0 mi Calm Calm - N/A   Mostly Cloudy
6:07 PM -16.6 °F - -22.0 °F 76% 30.01 in 4.0 mi Calm Calm - N/A Snow Light Snow
6:27 PM -16.6 °F - -23.8 °F 70% 30.01 in 5.0 mi Calm Calm - N/A   Haze
6:47 PM -18.4 °F - -23.8 °F 76% 30.02 in 7.0 mi Calm Calm - N/A   Scattered Clouds
7:07 PM -18.4 °F - -23.8 °F 76% 30.03 in 5.0 mi Calm Calm - N/A Snow Light Snow
7:27 PM -18.4 °F - -25.6 °F 70% 30.03 in 10.0 mi Calm Calm - N/A   Clear
7:48 PM -20.2 °F - -27.4 °F 69% 30.04 in 10.0 mi Calm Calm - N/A   Clear
8:07 PM -18.4 °F - -25.6 °F 70% 30.05 in 10.0 mi Calm Calm - N/A   Clear
8:27 PM -13.0 °F -27.0 °F -18.4 °F 77% 30.06 in 10.0 mi West 5.8 mph - N/A   Clear
8:48 PM -11.2 °F -20.6 °F -16.6 °F 77% 30.07 in 10.0 mi West 3.5 mph - N/A   Clear
9:08 PM -11.2 °F - -16.6 °F 77% 30.08 in 10.0 mi Calm Calm - N/A   Clear
9:27 PM -13.0 °F - -18.4 °F 77% 30.09 in 10.0 mi Calm Calm - N/A   Clear
9:48 PM -13.0 °F - -18.4 °F 77% 30.10 in 10.0 mi Calm Calm - N/A   Clear
10:08 PM -14.8 °F - -18.4 °F 84% 30.11 in 10.0 mi Calm Calm - N/A   Clear
10:27 PM -13.0 °F - -18.4 °F 77% 30.12 in 10.0 mi Calm Calm - N/A   Clear
10:47 PM -13.0 °F -22.7 °F -18.4 °F 77% 30.13 in 10.0 mi West 3.5 mph - N/A   Clear
11:07 PM -14.8 °F -24.8 °F -18.4 °F 84% 30.14 in 10.0 mi West 3.5 mph - N/A   Clear
11:27 PM -14.8 °F - -18.4 °F 84% 30.16 in 10.0 mi Calm Calm - N/A   Clear
11:48 PM -14.8 °F - -18.4 °F 84% 30.17 in 10.0 mi Calm Calm - N/A   Clear